Stations météo

Publicité
Chassiron, France (7314): Température de l'air & dewpoint: 26.06.2020 14:00:00 - 02.07.2020 14:00:00 (CEST)Chassiron, France (7314): Vitesse du vent & gusts: 26.06.2020 14:00:00 - 02.07.2020 14:00:00 (CEST)Chassiron, France (7314): Direction du vent: 26.06.2020 14:00:00 - 02.07.2020 14:00:00 (CEST)Chassiron, France (7314): reduced air pressure: 26.06.2020 14:00:00 - 02.07.2020 14:00:00 (CEST)Chassiron, France (7314): visibility: 26.06.2020 14:00:00 - 02.07.2020 14:00:00 (CEST)Chassiron, France (7314): Quantités de précipitations: 26.06.2020 14:00:00 - 02.07.2020 14:00:00 (CEST)
Date & Time tt [°C] td [°C] ff [km/h] ff [knt] fx [km/h] fx [knt] dd ppp [hPa] vv [km] rr [mm]
02.07.2020 14:00:00 19,1 12,1 15 8 27 15 WNW 1019,3 - 0,0
02.07.2020 13:00:00 19,1 12,6 17 9 29 15 WNW 1019,0 - 0,0
02.07.2020 12:00:00 19,0 12,0 16 9 25 13 W 1018,4 - 0,0
02.07.2020 11:00:00 17,8 11,8 16 9 29 15 WNW 1018,0 14 0,0
02.07.2020 10:00:00 18,1 11,9 16 9 28 15 W 1017,7 - 0,0
02.07.2020 09:00:00 17,9 11,7 16 9 30 16 W 1017,2 - 0,0
02.07.2020 08:00:00 17,6 11,8 18 10 31 17 W 1016,7 17 0,0
02.07.2020 07:00:00 17,5 12,2 20 11 30 16 W 1016,4 - 0,0
02.07.2020 06:00:00 17,5 12,2 21 12 34 18 W 1016,0 - 0,0
02.07.2020 05:00:00 17,5 12,0 23 13 37 20 W 1015,9 15 0,0
02.07.2020 04:00:00 18,0 12,9 26 14 35 19 W 1016,0 - 0,0
02.07.2020 03:00:00 17,6 12,3 26 14 49 26 W 1016,1 - 0,0
02.07.2020 02:00:00 18,0 12,4 26 14 37 20 W 1016,2 18 0,0
02.07.2020 01:00:00 18,3 14,2 29 16 42 23 W 1016,1 - 0,0
02.07.2020 00:00:00 18,6 14,1 29 16 43 23 WSW 1015,9 - 0,0
01.07.2020 23:00:00 18,6 14,1 28 15 38 20 WSW 1015,7 - 0,0
01.07.2020 22:00:00 18,6 14,1 27 15 36 20 WSW 1015,0 - 0,0
01.07.2020 21:00:00 18,9 13,7 25 13 37 20 WSW 1014,9 - 0,0
01.07.2020 20:00:00 19,3 14,8 27 14 37 20 WSW 1014,7 20 0,0
01.07.2020 19:00:00 19,4 15,3 26 14 38 21 WSW 1014,9 - 0,0
01.07.2020 18:00:00 19,7 15,1 26 14 38 20 WSW 1014,9 - 0,0
01.07.2020 17:00:00 19,2 16,1 27 15 40 22 WSW 1014,9 20 0,0
01.07.2020 16:00:00 19,6 15,7 23 12 32 17 WSW 1014,6 - 0,0
01.07.2020 15:00:00 19,5 16,7 19 11 40 21 W 1014,3 - 0,0
01.07.2020 14:00:00 20,0 17,4 24 13 33 18 WSW 1013,9 - 0,0
01.07.2020 13:00:00 20,0 17,4 24 13 35 19 SW 1013,6 - 0,0
01.07.2020 12:00:00 19,9 17,5 22 12 32 17 SW 1013,3 - 0,0
01.07.2020 11:00:00 19,4 17,2 23 13 30 16 SW 1013,2 14 0,0
01.07.2020 10:00:00 18,9 16,7 17 9 27 14 SSW 1013,0 - 0,0
01.07.2020 09:00:00 18,4 16,4 20 11 27 15 SSW 1012,8 - 0,0
01.07.2020 08:00:00 18,2 16,0 17 9 23 12 S 1012,5 - 0,0
01.07.2020 07:00:00 18,2 16,0 13 7 21 11 SW 1012,2 - 0,0
01.07.2020 06:00:00 18,0 15,4 8 5 17 9 WSW 1011,9 - 0,0
01.07.2020 05:00:00 17,6 15,2 4 2 10 5 SSW 1011,9 20 0,0
01.07.2020 04:00:00 17,9 15,5 6 3 13 7 SW 1012,4 - 0,0
01.07.2020 03:00:00 18,0 15,6 9 5 17 9 WSW 1012,8 - 0,0
01.07.2020 02:00:00 17,8 15,4 8 5 23 13 SW 1013,5 18 0,0
01.07.2020 01:00:00 18,1 15,5 8 4 22 12 W 1013,6 - 0,0
01.07.2020 00:00:00 18,3 15,4 13 7 23 12 W 1013,8 - 0,0
30.06.2020 23:00:00 18,3 15,2 13 7 23 12 WSW 1014,2 14 0,0
30.06.2020 22:00:00 18,6 15,5 10 5 19 10 SW 1013,9 - 0,0
30.06.2020 21:00:00 18,7 15,0 9 5 21 11 SW 1013,8 - 0,0
30.06.2020 20:00:00 19,0 15,1 12 6 25 13 SW 1013,9 14 0,0
30.06.2020 19:00:00 19,3 15,2 15 8 24 13 WSW 1014,3 - 0,0
30.06.2020 18:00:00 19,4 15,5 15 8 23 13 WSW 1014,8 - 0,0
30.06.2020 17:00:00 19,2 16,1 17 9 28 15 SW 1015,2 9 0,0
30.06.2020 16:00:00 19,2 15,5 20 11 29 15 SW 1015,4 - 0,0
30.06.2020 15:00:00 19,2 15,3 21 11 30 16 SW 1015,8 - 0,0
30.06.2020 14:00:00 19,3 15,4 22 12 32 18 SSW 1016,1 18 0,0
30.06.2020 13:00:00 18,9 15,0 22 12 33 18 SSW 1016,2 - 0,0
30.06.2020 12:00:00 18,4 14,9 23 13 31 17 SW 1016,3 - 0,0
30.06.2020 11:00:00 18,3 14,0 24 13 36 19 SW 1016,3 - 0,0
30.06.2020 10:00:00 18,4 13,7 23 12 35 19 SW 1016,4 - 0,0
30.06.2020 09:00:00 17,9 13,4 23 12 34 19 SW 1016,4 - 0,0
30.06.2020 08:00:00 17,4 12,7 24 13 37 20 SW 1016,3 18 0,0
30.06.2020 07:00:00 17,3 12,0 25 14 36 20 SW 1016,3 - 0,0
30.06.2020 06:00:00 17,5 12,2 22 12 34 18 SW 1016,4 - 0,0
30.06.2020 05:00:00 17,6 12,3 21 11 30 16 SW 1016,7 - 0,0
30.06.2020 04:00:00 17,5 11,7 20 11 33 18 SW 1017,1 - 0,0
30.06.2020 03:00:00 17,5 11,3 22 12 29 16 SW 1017,6 - 0,0
30.06.2020 02:00:00 17,4 10,3 20 11 29 16 WSW 1018,2 20 0,0
30.06.2020 01:00:00 17,4 10,7 21 11 30 16 W 1018,5 - 0,0
30.06.2020 00:00:00 17,3 10,7 22 12 29 16 W 1018,7 - 0,0
29.06.2020 23:00:00 17,3 10,9 21 11 31 17 W 1018,9 - 0,0
29.06.2020 22:00:00 17,5 11,1 19 10 27 14 W 1018,7 - 0,0
29.06.2020 21:00:00 17,7 9,6 19 10 27 14 WSW 1018,9 - 0,0
29.06.2020 20:00:00 18,5 10,3 18 10 29 16 W 1019,2 20 0,0
29.06.2020 19:00:00 18,6 10,7 18 10 32 18 W 1019,5 - 0,0
29.06.2020 18:00:00 19,0 10,5 19 10 30 16 W 1020,1 - 0,0
29.06.2020 17:00:00 18,9 10,5 19 10 27 15 WSW 1020,3 - 0,0
29.06.2020 16:00:00 18,5 10,1 19 10 27 15 W 1020,7 - 0,0
29.06.2020 15:00:00 18,9 10,2 18 10 29 16 W 1020,9 - 0,0
29.06.2020 14:00:00 19,0 9,7 17 9 27 15 W 1021,1 25 0,0
29.06.2020 13:00:00 18,3 8,5 16 9 34 18 W 1021,3 - 0,0
29.06.2020 12:00:00 18,3 9,1 19 10 34 19 WNW 1021,2 - 0,0
29.06.2020 11:00:00 17,8 9,9 17 9 35 19 W 1020,8 25 0,0
29.06.2020 10:00:00 18,3 9,9 17 9 29 16 W 1020,6 - 0,0
29.06.2020 09:00:00 17,9 9,3 21 11 32 17 WNW 1020,5 - 0,0
29.06.2020 08:00:00 16,9 9,8 20 11 35 19 WNW 1020,1 18 0,0
29.06.2020 07:00:00 16,5 9,7 17 9 36 19 W 1019,7 - 0,0
29.06.2020 06:00:00 16,5 9,9 25 13 37 20 WNW 1019,2 - 0,0
29.06.2020 05:00:00 16,8 11,1 27 14 42 23 NW 1019,0 - 0,0
29.06.2020 04:00:00 17,1 12,4 28 15 41 22 NW 1018,7 - 0,0
29.06.2020 03:00:00 17,3 13,4 28 15 42 23 NW 1018,5 - 0,0
29.06.2020 02:00:00 17,9 14,8 23 13 44 24 WNW 1018,4 - 0,0
29.06.2020 01:00:00 18,1 15,7 31 17 42 23 WNW 1018,4 - 0,0
29.06.2020 00:00:00 18,6 16,0 31 17 42 23 W 1018,2 - 0,0
28.06.2020 23:00:00 18,9 16,1 28 15 45 24 WSW 1017,8 12 0,0
28.06.2020 22:00:00 18,9 17,0 30 16 44 24 WSW 1017,6 - 0,0
28.06.2020 21:00:00 18,8 17,3 30 16 46 25 SW 1017,5 - 0,0
28.06.2020 20:00:00 18,4 17,1 34 18 46 25 SW 1017,5 6 0,2
28.06.2020 19:00:00 18,4 17,1 30 16 41 22 SW 1017,9 - 0,2
28.06.2020 18:00:00 17,9 15,9 19 10 30 16 SSW 1018,5 - 0,0
28.06.2020 17:00:00 17,7 16,0 23 12 31 17 SW 1018,7 - 0,4
28.06.2020 16:00:00 17,8 16,0 6 4 14 7 SSE 1019,0 - 0,6
28.06.2020 15:00:00 16,6 14,6 4 2 10 5 E 1019,1 - 0,0
28.06.2020 14:00:00 16,3 14,1 8 4 20 11 NNW 1019,4 12 0,2
28.06.2020 13:00:00 16,4 14,4 14 8 28 15 NNW 1019,4 - 0,4
28.06.2020 12:00:00 17,9 13,0 14 8 26 14 WNW 1019,5 - 0,0
28.06.2020 11:00:00 18,5 12,5 14 8 29 16 W 1019,2 25 0,0
28.06.2020 10:00:00 18,3 12,7 23 12 32 17 W 1019,3 - 0,0
28.06.2020 09:00:00 18,4 13,0 22 12 31 17 WSW 1018,8 - 0,0
28.06.2020 08:00:00 18,2 12,9 21 11 33 18 W 1018,2 - 0,0
28.06.2020 07:00:00 18,0 12,4 22 12 36 19 WSW 1018,0 - 0,0
28.06.2020 06:00:00 17,9 12,1 28 15 45 24 W 1018,0 - 0,0
28.06.2020 05:00:00 18,2 12,0 29 16 42 23 W 1017,7 15 0,0
28.06.2020 04:00:00 18,0 12,2 28 15 42 23 W 1017,6 - 0,0
28.06.2020 03:00:00 18,3 13,2 29 16 43 23 WSW 1017,6 - 0,0
28.06.2020 02:00:00 18,6 12,8 33 18 45 24 WSW 1017,8 18 0,0
28.06.2020 01:00:00 18,6 12,8 33 18 47 25 WSW 1017,6 - 0,0
28.06.2020 00:00:00 18,7 12,7 30 16 46 25 WSW 1017,5 - 0,0
27.06.2020 23:00:00 18,4 12,8 28 15 44 24 WSW 1017,2 18 0,0
27.06.2020 22:00:00 18,7 13,1 32 18 46 25 WSW 1016,8 - 0,0
27.06.2020 21:00:00 19,0 12,3 36 19 51 27 WSW 1016,1 - 0,0
27.06.2020 20:00:00 19,3 13,7 35 19 49 26 WSW 1016,2 18 0,0
27.06.2020 19:00:00 20,2 15,6 32 17 46 25 SW 1015,7 - 0,0
27.06.2020 18:00:00 20,1 16,5 29 16 49 27 SW 1015,8 - 0,0
27.06.2020 17:00:00 20,0 17,0 32 17 48 26 SW 1015,9 - 0,0
27.06.2020 16:00:00 19,8 16,8 34 18 45 25 SW 1015,6 - 0,0
27.06.2020 15:00:00 20,0 17,0 33 18 48 26 SW 1015,5 - 0,0
27.06.2020 14:00:00 19,8 17,0 33 18 49 26 SW 1015,4 15 0,0
27.06.2020 13:00:00 19,6 16,6 36 20 54 29 SW 1015,2 - 0,4
27.06.2020 12:00:00 19,3 16,5 37 20 54 29 SW 1014,7 - 0,0
27.06.2020 11:00:00 20,0 16,6 33 18 51 27 SSW 1014,3 15 0,0
27.06.2020 10:00:00 20,1 16,5 39 21 51 27 SSW 1014,1 - 0,0
27.06.2020 09:00:00 19,9 16,1 35 19 47 25 S 1013,8 - 0,0
27.06.2020 08:00:00 19,6 16,1 31 17 44 24 S 1013,3 15 0,0
27.06.2020 07:00:00 19,2 15,5 31 17 40 22 S 1013,1 - 0,0
27.06.2020 06:00:00 18,5 14,6 28 15 42 23 SSW 1013,2 - 0,0
27.06.2020 05:00:00 18,4 14,3 29 15 39 21 SSW 1013,4 15 0,0
27.06.2020 04:00:00 18,1 13,8 19 11 29 16 S 1013,9 - 0,0
27.06.2020 03:00:00 18,1 13,6 19 11 29 16 SSW 1014,2 - 0,0
27.06.2020 02:00:00 18,0 13,3 19 10 29 16 SSW 1014,9 15 0,0
27.06.2020 01:00:00 18,4 13,3 19 10 29 16 SW 1014,8 - 0,0
27.06.2020 00:00:00 18,6 13,5 21 12 30 16 WSW 1014,1 - 0,0
26.06.2020 23:00:00 18,8 14,7 18 10 28 15 WSW 1013,7 15 0,0
26.06.2020 22:00:00 18,7 14,8 16 9 24 13 WSW 1013,4 - 0,0
26.06.2020 21:00:00 18,7 14,6 14 7 22 12 WSW 1013,5 - 0,0
26.06.2020 20:00:00 18,9 14,8 16 9 28 15 W 1013,7 18 0,0
26.06.2020 19:00:00 19,0 15,3 19 10 26 14 WSW 1013,8 - 0,0
26.06.2020 18:00:00 18,7 15,4 17 9 29 15 WSW 1014,0 - 0,0
26.06.2020 17:00:00 18,4 16,4 16 9 26 14 WSW 1014,4 12 0,0
26.06.2020 16:00:00 18,7 16,5 17 9 29 15 SW 1014,6 - 0,0
26.06.2020 15:00:00 18,4 16,9 20 11 34 18 SW 1014,6 - 0,0
26.06.2020 14:00:00 18,9 16,7 16 9 32 17 SW 1014,8 12 1,0

tt = Température de l'air
td = dewpoint
ff = Vitesse du vent
fx = gusts
dd = Direction du vent
ppp = reduced air pressure
vv = visibility
rr = Quantités de précipitations

stations d'obs. à proximité